Location: Carrières
(48.9495°N, 2.0407°E)
Time: 14:10:01
(UTC+00:00)

Cosmos 1975 Rocket - Pass Details

Date: 28 January 2023
Orbit: 602 x 633 km, 82.5° (Epoch: 21 March)

Event Time Altitude Azimuth Distance (km) Brightness Sun altitude
Rises 18:10:29 0° 207° (SSW) 2,917 7.1 -14.5°
Reaches altitude 10° 18:12:49 10° 215° (SW) 2,012 6.3 -14.9°
Maximum altitude 18:17:03 41° 286° (WNW) 917 4.4 -15.5°
Drops below altitude 10° 18:21:18 10° 357° (N) 2,017 5.6 -16.2°
Sets 18:23:39 0° 5° (N) 2,924 6.4 -16.6°
